Regional Weather Roundup
Issued by NWS

Home | Current Version | Previous Version | Text Only | Print | Product List | Glossary On
Versions: 1 2 3 4 5 6 7 8 9 10 11 12 13 14 15 16 17 18 19 20 21 22 23 24 25 26 27 28 29 30 31 32 33 34 35 36 37 38 39 40 41 42 43 44 45 46 47 48 49 50
000
ASUS45 KPSR 171210
RWRAZ

ARIZONA REGIONAL HOURLY WEATHER ROUNDUP
NATIONAL WEATHER SERVICE PHOENIX AZ
500 AM MST WED SEP 17 2014

NOTE: FAIR INDICATES FEW OR NO CLOUDS BELOW 12,000 FEET WITH NO
SIGNIFICANT WEATHER AND/OR OBSTRUCTIONS TO VISIBILITY.

AZZ001>003-036-171300-
NORTHWEST ARIZONA

CITY           SKY/WX    TMP DP  RH WIND       PRES   REMARKS
BULLHEAD CITY  CLEAR     79  72  78 CALM      29.80S
KINGMAN        MOCLDY    67  60  78 E5        29.96S
6HR MIN TEMP:  67; 6HR MAX TEMP:  75;

$$

AZZ004>008-015-016-018-171300-
NORTH CENTRAL ARIZONA

CITY           SKY/WX    TMP DP  RH WIND       PRES   REMARKS
GRAND CANYON   MOCLDY    53  49  86 CALM      30.19R
6HR MIN TEMP:  53; 6HR MAX TEMP:  64; 6HR PCP: TRACE;

PRESCOTT       CLOUDY    65  57  75 SE6       30.07S
6HR MIN TEMP:  65; 6HR MAX TEMP:  67; 6HR PCP: TRACE;

FLAGSTAFF      CLOUDY    56  54  93 CALM      30.21S
6HR MIN TEMP:  56; 6HR MAX TEMP:  58;

PAYSON         CLOUDY    63  61  94 CALM      30.11S
PAGE           CLOUDY    73  53  49 S6        30.04S
6HR MIN TEMP:  72; 6HR MAX TEMP:  76;

$$

AZZ009>014-017-171300-
NORTHEAST ARIZONA

CITY           SKY/WX    TMP DP  RH WIND       PRES   REMARKS
WINSLOW        CLOUDY    65  62  90 E3        30.11R
6HR MIN TEMP:  65; 6HR MAX TEMP:  69; 6HR PCP:  0.04;

SAINT JOHNS    LGT RAIN  61  59  93 E6        30.14R
6HR MIN TEMP:  61; 6HR MAX TEMP:  63; 6HR PCP:  0.06;

SHOW LOW       LGT RAIN  55  55 100 CALM      30.20R
$$

AZZ023-171300-
GREATER PHOENIX AREA

CITY           SKY/WX    TMP DP  RH WIND       PRES   REMARKS
PHOENIX        CLOUDY    81  68  64 E9        29.80S
6HR MIN TEMP:  80; 6HR MAX TEMP:  86; 6HR PCP: TRACE;

BUCKEYE          N/A     81  66  61 E8        29.80S
LUKE AFB       CLOUDY    81  67  63 CALM      29.80S
6HR MIN TEMP:  81; 6HR MAX TEMP:  84;

DEER VALLEY    CLOUDY    80  66  62 E5        29.83R
6HR MIN TEMP:  78; 6HR MAX TEMP:  82;

SCOTTSDALE     CLOUDY    80  67  64 CALM      29.84F
6HR MIN TEMP:  80; 6HR MAX TEMP:  85; 6HR PCP: TRACE;

MESA-GATEWAY   LGT RAIN  77  72  83 CALM      29.84F
$$

AZZ027-028-171300-
SOUTHWEST MARICOPA COUNTY AND PINAL COUNTY

CITY           SKY/WX    TMP DP  RH WIND       PRES   REMARKS
CASA GRANDE    CLOUDY    77  66  69 NE8       29.83R
6HR MIN TEMP:  75; 6HR MAX TEMP:  81;

$$

AZZ503-504-507>509-171300-
SOUTHEAST ARIZONA

CITY           SKY/WX    TMP DP  RH WIND       PRES   REMARKS
TUCSON         CLOUDY    75  68  78 NE6       29.89F
6HR MIN TEMP:  73; 6HR MAX TEMP:  77; 6HR PCP:  0.03;

DAVIS-MONTHAN  CLOUDY    73  69  87 E6        29.88S
6HR MIN TEMP:  72; 6HR MAX TEMP:  76; 6HR PCP:  0.02;

NOGALES        LGT RAIN  67  65  93 CALM      29.94S
6HR MIN TEMP:  67; 6HR MAX TEMP:  72; 6HR PCP:  0.11;

SIERRA VISTA   CLOUDY    64  64 100 E8        30.02R
                                      6HR PCP:  0.32;

DOUGLAS        CLOUDY    68  63  84 E8        30.01R
6HR MIN TEMP:  67; 6HR MAX TEMP:  71; 6HR PCP: TRACE;

SAFFORD        CLOUDY    69  65  86 E7        29.96S
6HR MIN TEMP:  68; 6HR MAX TEMP:  71; 6HR PCP:  0.03;

$$

AZZ020-021-025-026-031-171300-
SOUTHWEST ARIZONA

CITY           SKY/WX    TMP DP  RH WIND       PRES   REMARKS
YUMA           MOCLDY    84  72  67 W5        29.74R
6HR MIN TEMP:  84; 6HR MAX TEMP:  91;

$$

CAZ031-033-041-043-047-048-061-171300-
SOUTHERN CALIFORNIA

CITY           SKY/WX    TMP DP  RH WIND       PRES   REMARKS
DOWNTOWN L.A.  CLEAR     77  62  59 CALM      29.71S
6HR MIN TEMP:  76; 6HR MAX TEMP:  81;

L.A. AIRPORT   CLEAR     75  64  68 CALM      29.72R
6HR MIN TEMP:  73; 6HR MAX TEMP:  79;

SAN DIEGO      PTCLDY    76  70  82 NW5       29.71F
6HR MIN TEMP:  76; 6HR MAX TEMP:  80;

BURBANK        CLEAR     80  58  46 CALM      29.74S
6HR MIN TEMP:  80; 6HR MAX TEMP:  87;

ONTARIO        CLEAR     82  66  58 CALM      29.75F
6HR MIN TEMP:  81; 6HR MAX TEMP:  89;

RIVERSIDE      CLEAR     82  66  58 CALM      29.75S
6HR MIN TEMP:  82; 6HR MAX TEMP:  89;

PALM SPRINGS   CLEAR     86  67  52 CALM      29.76S
6HR MIN TEMP:  85; 6HR MAX TEMP:  90;

EL CENTRO NAS  MOCLDY    84  63  49 SE6       29.72R
6HR MIN TEMP:  82; 6HR MAX TEMP:  89;

IMPERIAL       MOCLDY    85  64  49 SE5       29.72R
6HR MIN TEMP:  83; 6HR MAX TEMP:  89;

BLYTHE         CLEAR     80  69  69 W5        29.75S
6HR MIN TEMP:  80; 6HR MAX TEMP:  83;

NEEDLES        PTCLDY    80  71  74 W3        29.79S
6HR MIN TEMP:  80; 6HR MAX TEMP:  83;

$$

NVZ020-UTZ003-171300-
SOUTHERN NEVADA-UTAH

CITY           SKY/WX    TMP DP  RH WIND       PRES   REMARKS
LAS VEGAS      PTCLDY    81  57  43 W5        29.83S
6HR MIN TEMP:  81; 6HR MAX TEMP:  86;

SALT LAKE CITY MOCLDY    70  44  39 SE13      29.94S
6HR MIN TEMP:  69; 6HR MAX TEMP:  75;

$$

NMZ009-TXZ055-171300-
NEW MEXICO-WEST TEXAS

CITY           SKY/WX    TMP DP  RH WIND       PRES   REMARKS
ALBUQUERQUE    CLOUDY    62  55  77 CALM      30.17S
6HR MIN TEMP:  61; 6HR MAX TEMP:  63;

EL PASO        LGT RAIN  68  63  84 N9        30.05S
6HR MIN TEMP:  68; 6HR MAX TEMP:  69; 6HR PCP:  0.01;

$$


........................KEY........................
SKY/WX - SKY CONDITION/WEATHER
TMP    - TEMPERATURE IN FAHRENHEIT
DP     - DEW POINT IN FAHRENHEIT
RH     - RELATIVE HUMIDITY IN PERCENT
WIND   - DIRECTION AND SPEED IN MILES PER HOUR (MPH)
VRB    - VARIABLE WIND DIRECTION
PRES   - MEAN SEA LEVEL PRESSURE IN INCHES OF MERCURY
         F - FALLING PRESSURE   R - RISING PRESSURE
         S - STEADY PRESSURE
VSB    - VISIBILITY IN MILES
HX     - HEAT INDEX IN FAHRENHEIT
WCI    - WIND CHILL INDEX IN FAHRENHEIT
TC     - TEMPERATURE IN CELSIUS WHICH IS ALSO KNOWN AS
         TEMPERATURE IN CENTIGRADE
AFB    - AIR FORCE BASE
         LUKE AFB IS LUKE AIR FORCE BASE
         DAVIS-MONTHAN IS DAVIS-MONTHAN AIR FORCE BASE
NAS    - NAVAL AIR STATION
         EL CENTRO NAS IS EL CENTRO NAVAL AIR STATION
N/A    - NOT AVAILABLE



USA.gov is the U.S. government's official web portal to all federal, state and local government web resources and services.